Time,TemperatureF,DewpointF,PressureIn,WindDirection,WindDirectionDegrees,WindSpeedMPH,WindSpeedGustMPH,Humidity,HourlyPrecipIn,Conditions,Clouds,dailyrainin,SoftwareType,DateUTC
2013-10-05 00:12:00,53.0,49.0,30.30,ESE,102,12.0,18.0,86,0.00,,,0.00,,2013-10-05 07:12:00,
2013-10-05 00:22:00,54.0,49.0,30.30,East,90,13.0,20.0,84,0.00,,,0.00,,2013-10-05 07:22:00,
2013-10-05 00:42:00,53.0,48.0,30.30,East,93,13.0,20.0,84,0.00,,,0.00,,2013-10-05 07:42:00,
2013-10-05 00:52:00,53.0,48.0,30.30,ESE,119,14.0,18.0,83,0.00,,,0.00,,2013-10-05 07:52:00,
2013-10-05 01:12:00,53.0,48.0,30.29,ESE,102,15.0,19.0,82,0.00,,,0.00,,2013-10-05 08:12:00,
2013-10-05 01:23:00,53.0,47.0,30.29,ESE,117,13.0,18.0,80,0.00,,,0.00,,2013-10-05 08:23:00,
2013-10-05 01:42:00,53.0,47.0,30.29,ESE,104,14.0,22.0,79,0.00,,,0.00,,2013-10-05 08:42:00,
2013-10-05 01:52:00,54.0,47.0,30.29,East,94,14.0,21.0,78,0.00,,,0.00,,2013-10-05 08:52:00,
2013-10-05 02:11:00,54.0,47.0,30.29,East,94,13.0,19.0,78,0.00,,,0.00,,2013-10-05 09:11:00,
2013-10-05 02:21:00,53.0,47.0,30.29,ESE,112,14.0,19.0,79,0.00,,,0.00,,2013-10-05 09:21:00,
2013-10-05 02:43:00,53.0,47.0,30.29,East,98,15.0,20.0,80,0.00,,,0.00,,2013-10-05 09:43:00,
2013-10-05 02:54:00,52.0,46.0,30.29,East,86,13.0,22.0,81,0.00,,,0.00,,2013-10-05 09:54:00,
2013-10-05 03:12:00,53.0,47.0,30.28,ESE,106,13.0,19.0,81,0.00,,,0.00,,2013-10-05 10:12:00,
2013-10-05 03:23:00,52.0,47.0,30.28,ESE,112,14.0,22.0,82,0.00,,,0.00,,2013-10-05 10:23:00,
2013-10-05 03:43:00,52.0,47.0,30.28,East,83,13.0,22.0,82,0.00,,,0.00,,2013-10-05 10:43:00,
2013-10-05 03:53:00,53.0,48.0,30.27,East,98,14.0,21.0,83,0.00,,,0.00,,2013-10-05 10:53:00,
2013-10-05 04:11:00,54.0,48.0,30.27,ESE,117,17.0,24.0,81,0.00,,,0.00,,2013-10-05 11:11:00,
2013-10-05 04:22:00,54.0,48.0,30.27,ESE,110,15.0,22.0,80,0.00,,,0.00,,2013-10-05 11:22:00,
2013-10-05 04:42:00,54.0,48.0,30.26,East,93,15.0,22.0,80,0.00,,,0.00,,2013-10-05 11:42:00,
2013-10-05 04:52:00,54.0,48.0,30.26,East,92,15.0,23.0,79,0.00,,,0.00,,2013-10-05 11:52:00,
2013-10-05 05:12:00,54.0,48.0,30.26,East,99,15.0,24.0,80,0.00,,,0.00,,2013-10-05 12:12:00,
2013-10-05 05:22:00,54.0,48.0,30.25,ESE,103,16.0,26.0,79,0.00,,,0.00,,2013-10-05 12:22:00,
2013-10-05 05:42:00,53.0,47.0,30.25,ENE,73,16.0,26.0,80,0.00,,,0.00,,2013-10-05 12:42:00,
2013-10-05 05:52:00,53.0,47.0,30.24,East,89,20.0,29.0,80,0.00,,,0.00,,2013-10-05 12:52:00,
2013-10-05 06:12:00,54.0,48.0,30.23,ESE,114,20.0,27.0,79,0.00,,,0.00,,2013-10-05 13:12:00,
2013-10-05 06:22:00,54.0,48.0,30.23,ESE,117,17.0,31.0,79,0.00,,,0.00,,2013-10-05 13:22:00,
2013-10-05 06:42:00,53.0,47.0,30.24,ESE,110,15.0,26.0,79,0.00,,,0.00,,2013-10-05 13:42:00,
2013-10-05 06:52:00,54.0,47.0,30.24,East,88,15.0,24.0,78,0.00,,,0.00,,2013-10-05 13:52:00,
2013-10-05 07:11:00,55.0,47.0,30.24,ESE,104,17.0,24.0,75,0.00,,,0.00,,2013-10-05 14:11:00,
2013-10-05 07:22:00,54.0,47.0,30.24,ENE,75,14.0,27.0,76,0.00,,,0.00,,2013-10-05 14:22:00,
2013-10-05 07:42:00,54.0,46.0,30.24,ESE,108,16.0,28.0,75,0.00,,,0.00,,2013-10-05 14:42:00,
2013-10-05 07:52:00,54.0,46.0,30.23,ESE,111,15.0,26.0,75,0.00,,,0.00,,2013-10-05 14:52:00,
2013-10-05 08:12:00,54.0,46.0,30.24,ESE,108,14.0,26.0,75,0.00,,,0.00,,2013-10-05 15:12:00,
2013-10-05 08:21:00,54.0,46.0,30.23,East,96,19.0,28.0,75,0.00,,,0.00,,2013-10-05 15:21:00,
2013-10-05 08:44:00,53.0,46.0,30.23,East,101,22.0,28.0,76,0.00,,,0.00,,2013-10-05 15:44:00,
2013-10-05 08:53:00,54.0,46.0,30.23,ESE,123,20.0,29.0,75,0.00,,,0.00,,2013-10-05 15:53:00,
2013-10-05 09:13:00,54.0,46.0,30.23,East,92,21.0,28.0,74,0.00,,,0.00,,2013-10-05 16:13:00,
2013-10-05 09:23:00,55.0,47.0,30.23,East,83,17.0,28.0,74,0.00,,,0.00,,2013-10-05 16:23:00,
2013-10-05 09:43:00,55.0,47.0,30.23,East,91,19.0,29.0,73,0.00,,,0.00,,2013-10-05 16:43:00,
2013-10-05 09:53:00,56.0,47.0,30.22,ESE,108,22.0,30.0,72,0.00,,,0.00,,2013-10-05 16:53:00,
2013-10-05 10:12:00,57.0,48.0,30.23,East,85,16.0,29.0,71,0.00,,,0.00,,2013-10-05 17:12:00,
2013-10-05 10:22:00,58.0,47.0,30.23,East,85,15.0,26.0,68,0.00,,,0.00,,2013-10-05 17:22:00,
2013-10-05 10:42:00,58.0,47.0,30.22,East,96,20.0,28.0,67,0.00,,,0.00,,2013-10-05 17:42:00,
2013-10-05 10:52:00,59.0,47.0,30.22,SE,129,21.0,31.0,64,0.00,,,0.00,,2013-10-05 17:52:00,
2013-10-05 11:12:00,60.0,47.0,30.23,ENE,75,15.0,27.0,63,0.00,,,0.00,,2013-10-05 18:12:00,
2013-10-05 11:21:00,61.0,47.0,30.22,ESE,115,18.0,26.0,61,0.00,,,0.00,,2013-10-05 18:21:00,
2013-10-05 11:42:00,62.0,48.0,30.22,ESE,120,8.0,18.0,60,0.00,,,0.00,,2013-10-05 18:42:00,
2013-10-05 11:52:00,63.0,48.0,30.22,SE,133,6.0,14.0,58,0.00,,,0.00,,2013-10-05 18:52:00,
2013-10-05 12:11:00,65.0,49.0,30.22,ENE,77,7.0,20.0,57,0.00,,,0.00,,2013-10-05 19:11:00,
2013-10-05 12:22:00,65.0,48.0,30.22,ENE,58,7.0,17.0,54,0.00,,,0.00,,2013-10-05 19:22:00,
2013-10-05 12:42:00,64.0,50.0,30.21,North,11,7.0,17.0,60,0.00,,,0.00,,2013-10-05 19:42:00,
2013-10-05 12:52:00,63.0,52.0,30.21,North,2,7.0,11.0,67,0.00,,,0.00,,2013-10-05 19:52:00,
2013-10-05 13:11:00,62.0,52.0,30.20,North,352,7.0,10.0,69,0.00,,,0.00,,2013-10-05 20:11:00,
2013-10-05 13:22:00,63.0,55.0,30.20,NNW,347,8.0,10.0,74,0.00,,,0.00,,2013-10-05 20:22:00,
2013-10-05 13:42:00,63.0,54.0,30.19,NNW,339,7.0,10.0,73,0.00,,,0.00,,2013-10-05 20:42:00,
2013-10-05 13:52:00,63.0,55.0,30.18,North,350,8.0,10.0,75,0.00,,,0.00,,2013-10-05 20:52:00,
2013-10-05 14:11:00,63.0,55.0,30.18,NNW,335,10.0,12.0,76,0.00,,,0.00,,2013-10-05 21:11:00,
2013-10-05 14:21:00,63.0,56.0,30.18,NNE,15,13.0,15.0,78,0.00,,,0.00,,2013-10-05 21:21:00,
2013-10-05 14:43:00,62.0,55.0,30.18,North,8,10.0,14.0,78,0.00,,,0.00,,2013-10-05 21:43:00,
2013-10-05 14:54:00,62.0,55.0,30.17,North,2,9.0,14.0,78,0.00,,,0.00,,2013-10-05 21:54:00,
2013-10-05 15:12:00,62.0,55.0,30.16,North,4,11.0,14.0,78,0.00,,,0.00,,2013-10-05 22:12:00,
2013-10-05 15:24:00,62.0,55.0,30.16,North,360,10.0,13.0,79,0.00,,,0.00,,2013-10-05 22:24:00,
2013-10-05 15:42:00,62.0,55.0,30.16,North,2,10.0,14.0,78,0.00,,,0.00,,2013-10-05 22:42:00,
2013-10-05 15:53:00,62.0,55.0,30.16,North,360,13.0,16.0,78,0.00,,,0.00,,2013-10-05 22:53:00,
2013-10-05 16:13:00,62.0,55.0,30.16,North,360,10.0,14.0,78,0.00,,,0.00,,2013-10-05 23:13:00,
2013-10-05 16:22:00,62.0,55.0,30.15,North,4,11.0,14.0,78,0.00,,,0.00,,2013-10-05 23:22:00,
2013-10-05 16:42:00,62.0,55.0,30.15,North,9,10.0,13.0,78,0.00,,,0.00,,2013-10-05 23:42:00,
2013-10-05 16:53:00,62.0,55.0,30.14,NNE,15,11.0,14.0,79,0.00,,,0.00,,2013-10-05 23:53:00,
2013-10-05 17:12:00,61.0,54.0,30.14,North,2,10.0,13.0,78,0.00,,,0.00,,2013-10-06 00:12:00,
2013-10-05 17:23:00,61.0,54.0,30.14,North,11,7.0,10.0,78,0.00,,,0.00,,2013-10-06 00:23:00,
2013-10-05 17:43:00,62.0,55.0,30.14,North,1,6.0,8.0,79,0.00,,,0.00,,2013-10-06 00:43:00,
2013-10-05 17:52:00,62.0,55.0,30.14,North,8,6.0,8.0,79,0.00,,,0.00,,2013-10-06 00:52:00,
2013-10-05 18:11:00,62.0,56.0,30.14,North,8,6.0,9.0,80,0.00,,,0.00,,2013-10-06 01:11:00,
2013-10-05 18:22:00,61.0,55.0,30.13,North,11,6.0,9.0,80,0.00,,,0.00,,2013-10-06 01:22:00,
2013-10-05 18:42:00,61.0,55.0,30.13,North,360,3.0,8.0,80,0.00,,,0.00,,2013-10-06 01:42:00,
2013-10-05 18:52:00,61.0,55.0,30.14,North,353,0.0,3.0,80,0.00,,,0.00,,2013-10-06 01:52:00,
2013-10-05 19:11:00,61.0,55.0,30.13,North,353,0.0,1.0,80,0.00,,,0.00,,2013-10-06 02:11:00,
2013-10-05 19:21:00,60.0,54.0,30.13,NNE,20,2.0,5.0,80,0.00,,,0.00,,2013-10-06 02:21:00,
2013-10-05 19:42:00,58.0,52.0,30.12,NNE,12,0.0,1.0,81,0.00,,,0.00,,2013-10-06 02:42:00,
2013-10-05 19:52:00,57.0,51.0,30.12,NNE,12,0.0,0.0,81,0.00,,,0.00,,2013-10-06 02:52:00,
2013-10-05 20:12:00,57.0,52.0,30.13,WSW,258,2.0,3.0,83,0.00,,,0.00,,2013-10-06 03:12:00,
2013-10-05 20:22:00,57.0,52.0,30.12,WSW,258,0.0,2.0,84,0.00,,,0.00,,2013-10-06 03:22:00,
2013-10-05 20:44:00,57.0,52.0,30.12,ENE,65,1.0,3.0,84,0.00,,,0.00,,2013-10-06 03:44:00,
2013-10-05 20:54:00,57.0,53.0,30.12,NE,48,2.0,7.0,85,0.00,,,0.00,,2013-10-06 03:54:00,
2013-10-05 21:13:00,57.0,53.0,30.12,ESE,121,5.0,10.0,85,0.00,,,0.00,,2013-10-06 04:13:00,
2013-10-05 21:23:00,58.0,53.0,30.12,SE,135,0.0,8.0,83,0.00,,,0.00,,2013-10-06 04:23:00,
2013-10-05 21:44:00,58.0,52.0,30.11,ESE,117,3.0,8.0,81,0.00,,,0.00,,2013-10-06 04:44:00,
2013-10-05 21:54:00,59.0,52.0,30.11,East,90,12.0,19.0,77,0.00,,,0.00,,2013-10-06 04:54:00,
2013-10-05 22:13:00,60.0,52.0,30.11,ESE,115,11.0,19.0,76,0.00,,,0.00,,2013-10-06 05:13:00,
2013-10-05 22:22:00,60.0,52.0,30.11,ESE,106,12.0,19.0,75,0.00,,,0.00,,2013-10-06 05:22:00,
2013-10-05 22:42:00,59.0,51.0,30.11,East,101,11.0,17.0,76,0.00,,,0.00,,2013-10-06 05:42:00,
2013-10-05 22:52:00,59.0,51.0,30.11,ESE,119,11.0,19.0,75,0.00,,,0.00,,2013-10-06 05:52:00,
2013-10-05 23:12:00,59.0,51.0,30.10,East,100,13.0,19.0,74,0.00,,,0.00,,2013-10-06 06:12:00,
2013-10-05 23:21:00,59.0,51.0,30.10,ESE,110,17.0,22.0,74,0.00,,,0.00,,2013-10-06 06:21:00,
2013-10-05 23:42:00,59.0,51.0,30.10,East,98,15.0,20.0,74,0.00,,,0.00,,2013-10-06 06:42:00,
2013-10-05 23:52:00,59.0,50.0,30.10,ESE,108,14.0,22.0,73,0.00,,,0.00,,2013-10-06 06:52:00,